Flag for U.S.A. Weather past 2 weeks in Sterling Heights, Michigan, U.S.A.

Now
39 °F

Scattered clouds.


Feels Like: 32 °F
Forecast: 24 / 42 °F
Wind: 13 mph from Southeast

Location: Selfridge Air National Guard Base


UV Index: 3 (Moderate)

Visibility: 10 mi


Pressure: 30.48 "Hg

Humidity: 45%

Dew point: 20 °F

Location of Sterling HeightsLocation

Historic Weather in Sterling Heights

°F

Sterling Heights temperature yesterday

Maximum temperature yesterday: 32 °F (at 4:55 PM)
Minimum temperature yesterday: 26 °F (at 11:58 PM)
Average temperature yesterday: 29 °F

Past Weeks' High & Low Weather Summary

 TemperatureHumidityPressure
High76 °F (Apr 13, 4:55 PM)100% (Apr 4, 5:03 AM)30.50 "Hg (Apr 4, 5:03 AM)
Low19 °F (Apr 16, 5:58 AM)31% (Apr 11, 2:55 PM)29.40 "Hg (Apr 4, 2:01 PM)
Average44 °F67%29.91 "Hg
* Reported Apr 1 1:59 PM — Apr 16 1:55 PM, Sterling Heights, Weather by CustomWeather, © 2014

Note: Actual official high and low records may vary slightly from our data, if they occured in-between our weather recording intervals... More about our weather records

Advertising

Historic Weather Conditions — Data for Previous 24 hours

 ConditionsComfort  
Time TempWeatherWind HumidityBarometerVisibility
1:55 PM
Apr 16
39 °FScattered clouds.13 mph45%30.48 "Hg10 mi
12:55 PM37 °FPassing clouds.9 mph46%30.49 "Hg10 mi
11:55 AM36 °FPassing clouds.10 mph46%30.50 "Hg10 mi
10:55 AM35 °FPassing clouds.8 mph37%30.49 "Hg10 mi
9:55 AM35 °FScattered clouds.6 mph38%30.48 "Hg10 mi
8:55 AM31 °FPassing clouds.8 mph53%30.47 "Hg10 mi
7:55 AM27 °FPassing clouds.6 mph64%30.44 "Hg10 mi
6:58 AM20 °FClear.3 mph81%30.40 "Hg10 mi
5:58 AM19 °FClear.2 mph87%30.37 "Hg10 mi
4:58 AM21 °FClear.2 mph82%30.34 "Hg10 mi
3:58 AM21 °FClear.No wind78%30.30 "Hg10 mi
2:58 AM22 °FClear.2 mph68%30.29 "Hg10 mi
1:58 AM24 °FClear.1 mph62%30.27 "Hg10 mi
12:58 AM25 °FClear.No wind53%30.27 "Hg10 mi
11:58 PM
Apr 15
26 °FClear.2 mph60%30.26 "Hg10 mi
10:58 PM27 °FClear.5 mph51%30.25 "Hg10 mi
9:58 PM27 °FClear.7 mph52%30.22 "Hg10 mi
8:58 PM29 °FPassing clouds.8 mph48%30.18 "Hg10 mi
6:56 PM32 °FBroken clouds.17 mph50%30.11 "Hg10 mi
5:55 PM32 °FPartly sunny.13 mph46%30.08 "Hg10 mi
4:55 PM32 °FBroken clouds.17 mph47%30.06 "Hg10 mi
3:55 PM32 °FLight snow. Broken clouds.14 mph55%30.05 "Hg10 mi
Weather by CustomWeather, © 2014

See weather overview